Satellite: ISS
Catalog number: 25544
Epoch time:      10154.85504495
Element set:     276
Inclination:      051.6470 deg
RA of node:       298.8802 deg
Eccentricity:    0.0008978
Arg of perigee:   020.7547 deg
Mean anomaly:     115.2118 deg
Mean motion:   15.75210843 rev/day
Decay rate:     2.6110e-04 rev/day^2
Epoch rev:           66137
Checksum:              298

Satellite: CO-58
Catalog number: 28895
Epoch time:      10153.72540184
Element set:     598
Inclination:      098.0178 deg
RA of node:       038.6815 deg
Eccentricity:    0.0017140
Arg of perigee:   334.4331 deg
Mean anomaly:     025.6088 deg
Mean motion:   14.59897271 rev/day
Decay rate:       3.66e-06 rev/day^2
Epoch rev:           24487
Checksum:              338

Satellite: FALCON
Catalog number: 30776
Epoch time:      10153.93928190
Element set:    0853
Inclination:      035.4318 deg
RA of node:       130.7933 deg
Eccentricity:    0.0000835
Arg of perigee:   014.2228 deg
Mean anomaly:     345.8519 deg
Mean motion:   15.03673458 rev/day
Decay rate:       7.56e-06 rev/day^2
Epoch rev:           17791
Checksum:              304

Satellite: MAST
Catalog number: 31126
Epoch time:      10153.55970370
Element set:    0881
Inclination:      097.9374 deg
RA of node:       196.3264 deg
Eccentricity:    0.0093192
Arg of perigee:   271.5428 deg
Mean anomaly:     087.5109 deg
Mean motion:   14.53591305 rev/day
Decay rate:       3.16e-06 rev/day^2
Epoch rev:           16593
Checksum:              308

Satellite: CAPE1
Catalog number: 31130
Epoch time:      10153.80389816
Element set:     900
Inclination:      097.9370 deg
RA of node:       193.9970 deg
Eccentricity:    0.0100601
Arg of perigee:   278.7842 deg
Mean anomaly:     080.1912 deg
Mean motion:   14.52181808 rev/day
Decay rate:       1.17e-06 rev/day^2
Epoch rev:           16557
Checksum:              291

Satellite: COMPASS
Catalog number: 32787
Epoch time:      10153.31364727
Element set:    0688
Inclination:      097.8943 deg
RA of node:       218.2744 deg
Eccentricity:    0.0015389
Arg of perigee:   338.6069 deg
Mean anomaly:     021.4427 deg
Mean motion:   14.81877423 rev/day
Decay rate:       4.24e-06 rev/day^2
Epoch rev:           11329
Checksum:              321

Satellite: AAUSAT2
Catalog number: 32788
Epoch time:      10153.18310769
Element set:    0681
Inclination:      097.8952 deg
RA of node:       218.2699 deg
Eccentricity:    0.0014948
Arg of perigee:   340.6195 deg
Mean anomaly:     019.4440 deg
Mean motion:   14.82019034 rev/day
Decay rate:       2.77e-06 rev/day^2
Epoch rev:           11328
Checksum:              315

Satellite: DO-64
Catalog number: 32789
Epoch time:      10153.86855342
Element set:    0700
Inclination:      097.9013 deg
RA of node:       219.4031 deg
Eccentricity:    0.0014862
Arg of perigee:   336.1761 deg
Mean anomaly:     023.8735 deg
Mean motion:   14.82157597 rev/day
Decay rate:       7.48e-06 rev/day^2
Epoch rev:           11338
Checksum:              316

Satellite: CO-66
Catalog number: 32791
Epoch time:      10153.19834802
Element set:    0681
Inclination:      097.8957 deg
RA of node:       218.1780 deg
Eccentricity:    0.0015802
Arg of perigee:   337.0570 deg
Mean anomaly:     022.9951 deg
Mean motion:   14.81662047 rev/day
Decay rate:       3.73e-06 rev/day^2
Epoch rev:           11323
Checksum:              307

Satellite: RS-30
Catalog number: 32953
Epoch time:      10154.76809017
Element set:     751
Inclination:      082.5028 deg
RA of node:       038.0245 deg
Eccentricity:    0.0019460
Arg of perigee:   128.6420 deg
Mean anomaly:     231.6405 deg
Mean motion:   12.43005225 rev/day
Decay rate:        1.0e-07 rev/day^2
Epoch rev:            9207
Checksum:              252

Satellite: TACSAT-3
Catalog number: 35001
Epoch time:      10153.86068932
Element set:     301
Inclination:      040.4543 deg
RA of node:       300.1598 deg
Eccentricity:    0.0021761
Arg of perigee:   262.2997 deg
Mean anomaly:     097.5347 deg
Mean motion:   15.41717730 rev/day
Decay rate:      7.139e-05 rev/day^2
Epoch rev:            5842
Checksum:              287

Satellite: PHARMSAT
Catalog number: 35002
Epoch time:      10153.75461519
Element set:     285
Inclination:      040.4691 deg
RA of node:       298.8516 deg
Eccentricity:    0.0025511
Arg of perigee:   262.0627 deg
Mean anomaly:     097.7292 deg
Mean motion:   15.42251437 rev/day
Decay rate:      6.165e-05 rev/day^2
Epoch rev:            5842
Checksum:              290

Satellite: HAWKSAT1
Catalog number: 35003
Epoch time:      10154.72621145
Element set:     306
Inclination:      040.4575 deg
RA of node:       288.2012 deg
Eccentricity:    0.0023055
Arg of perigee:   283.9815 deg
Mean anomaly:     075.8440 deg
Mean motion:   15.45274976 rev/day
Decay rate:     1.2410e-04 rev/day^2
Epoch rev:            5863
Checksum:              274

Satellite: CP6
Catalog number: 35004
Epoch time:      10154.73025951
Element set:     302
Inclination:      040.4644 deg
RA of node:       287.3610 deg
Eccentricity:    0.0022214
Arg of perigee:   283.1378 deg
Mean anomaly:     076.6961 deg
Mean motion:   15.46071835 rev/day
Decay rate:     1.4424e-04 rev/day^2
Epoch rev:            5863
Checksum:              277

